FW2600 Weather Reports


time (UTC)temp
F
wind
direction
speed
knots
gust
knots
rain 1hr
in
rain 24hr
in
rain mn
in
humidity
%
barometer
mb
20260507021349 58 0.0 0.0 0.00 0.00 0.00 28 1003.7
20260507020439 58 0.0 0.0 0.00 0.00 0.00 28 1003.0
20260507015408 58 0.0 0.0 0.00 0.00 0.00 29 1003.0
20260507014419 58 0.0 0.0 0.00 0.00 0.00 29 1003.0
20260507013408 58 0.0 0.0 0.00 0.00 0.00 29 1002.5
20260507012439 58 0.0 0.0 0.00 0.00 0.00 29 1002.5
20260507010318 58 0.0 0.0 0.00 0.00 0.00 29 1002.2
20260507004157 59 0.0 0.0 0.00 0.00 0.00 31 1002.3
20260507003207 59 0.0 0.0 0.00 0.00 0.00 29 1002.1
20260507002157 59 0.0 0.0 0.00 0.00 0.00 30 1002.1
20260507001127 59 0.0 0.0 0.00 0.00 0.00 28 1002.1
20260507000115 59 0.0 0.0 0.00 0.00 0.00 26 1001.8
20260506235205 59 0.0 0.0 0.00 0.00 0.00 26 1001.8
20260506234315 60 0.0 0.0 0.00 0.00 0.00 22 1001.8
20260506233204 60 0.0 0.0 0.00 0.00 0.00 21 1001.6
20260506232134 60 0.0 0.0 0.00 0.00 0.00 14 1001.5
20260506231124 60 0.0 0.0 0.00 0.00 0.00 14 1001.5
20260506230134 60 0.0 0.0 0.00 0.00 0.00 21 1001.3
20260506225204 61 0.0 0.0 0.00 0.00 0.00 14 1001.3
20260506224154 61 0.0 0.0 0.00 0.00 0.00 14 1001.3
20260506223144 61 0.0 0.0 0.00 0.00 0.00 20 1001.2
20260506222134 61 0.0 0.0 0.00 0.00 0.00 14 1001.2
20260506221144 61 0.0 0.0 0.00 0.00 0.00 14 1001.2
20260506220114 62 0.0 0.0 0.00 0.00 0.00 21 1001.0
20260506215204 62 0.0 0.0 0.00 0.00 0.00 22 1001.0
20260506214154 62 0.0 0.0 0.00 0.00 0.00 14 1001.0
20260506213204 62 0.0 0.0 0.00 0.00 0.00 14 1000.8
20260506212133 63 0.0 0.0 0.00 0.00 0.00 14 1000.8
20260506211123 63 0.0 0.0 0.00 0.00 0.00 14 1000.8
20260506210234 63 0.0 0.0 0.00 0.00 0.00 14 1000.4
20260506205103 63 0.0 0.0 0.00 0.00 0.00 14 1000.4
20260506204113 64 0.0 0.0 0.00 0.00 0.00 14 1000.4
20260506203043 64 0.0 0.0 0.00 0.00 0.00 14 1000.2
20260506202032 64 0.0 0.0 0.00 0.00 0.00 14 1000.2
20260506201021 65 0.0 0.0 0.00 0.00 0.00 14 1000.3
20260506200011 65 0.0 0.0 0.00 0.00 0.00 14 1000.2
20260506195001 65 0.0 0.0 0.00 0.00 0.00 14 1000.2
20260506194031 66 0.0 0.0 0.00 0.00 0.00 14 1000.2
20260506193041 66 0.0 0.0 0.00 0.00 0.00 14 1000.0
20260506192011 66 0.0 0.0 0.00 0.00 0.00 14 1000.0
20260506190941 67 0.0 0.0 0.00 0.00 0.00 14 1000.0
20260506190011 67 0.0 0.0 0.00 0.00 0.00 14 999.7
20260506185041 67 0.0 0.0 0.00 0.00 0.00 14 999.7
20260506183950 68 0.0 0.0 0.00 0.00 0.00 14 999.8
20260506182940 68 0.0 0.0 0.00 0.00 0.00 14 999.3
20260506181930 68 0.0 0.0 0.00 0.00 0.00 14 999.3
20260506180940 69 0.0 0.0 0.00 0.00 0.00 14 999.3
20260506175909 69 0.0 0.0 0.00 0.00 0.00 14 999.3
20260506174859 70 0.0 0.0 0.00 0.00 0.00 14 999.3
20260506173909 70 0.0 0.0 0.00 0.00 0.00 14 999.3
20260506172959 71 0.0 0.0 0.00 0.00 0.00 14 999.4
20260506171828 71 0.0 0.0 0.00 0.00 0.00 14 999.3
20260506170818 72 0.0 0.0 0.00 0.00 0.00 14 999.4
20260506165909 72 0.0 0.0 0.00 0.00 0.00 14 999.5
20260506165019 73 0.0 0.0 0.00 0.00 0.00 14 999.5
20260506163948 74 0.0 0.0 0.00 0.00 0.00 14 999.6
20260506162838 75 0.0 0.0 0.00 0.00 0.00 14 1000.1
20260506161828 75 0.0 0.0 0.00 0.00 0.00 14 1000.1
20260506160838 76 0.0 0.0 0.00 0.00 0.00 14 1000.1
20260506155928 76 0.0 0.0 0.00 0.00 0.00 14 1000.8
20260506154858 76 0.0 0.0 0.00 0.00 0.00 14 1000.8
20260506153848 76 0.0 0.0 0.00 0.00 0.00 14 1000.8
20260506152858 76 0.0 0.0 0.00 0.00 0.00 14 1001.1
20260506151848 76 0.0 0.0 0.00 0.00 0.00 14 1001.2
20260506150817 76 0.0 0.0 0.00 0.00 0.00 14 1001.2
20260506145948 77 0.0 0.0 0.00 0.00 0.00 14 1001.3
20260506144917 77 0.0 0.0 0.00 0.00 0.00 14 1001.4
20260506143827 75 0.0 0.0 0.00 0.00 0.00 14 1001.3
20260506142756 75 0.0 0.0 0.00 0.00 0.00 14 1001.5
20260506141806 75 0.0 0.0 0.00 0.00 0.00 14 1001.5
20260506140736 75 0.0 0.0 0.00 0.00 0.00 14 1001.5
20260506135826 76 0.0 0.0 0.00 0.00 0.00 14 1001.8
20260506134856 75 0.0 0.0 0.00 0.00 0.00 14 1001.8
20260506133746 75 0.0 0.0 0.00 0.00 0.00 14 1001.8
20260506132736 75 0.0 0.0 0.00 0.00 0.00 14 1002.1
20260506131846 75 0.0 0.0 0.00 0.00 0.00 14 1002.2
20260506130736 75 0.0 0.0 0.00 0.00 0.00 14 1002.2
20260506125806 76 0.0 0.0 0.00 0.00 0.00 14 1002.3
20260506124816 77 0.0 0.0 0.00 0.00 0.00 14 1002.4
20260506123746 78 0.0 0.0 0.00 0.00 0.00 14 1002.4
20260506122756 79 0.0 0.0 0.00 0.00 0.00 14 1002.8
20260506121726 78 0.0 0.0 0.00 0.00 0.00 14 1002.8
20260506120736 78 0.0 0.0 0.00 0.00 0.00 14 1002.8
20260506115706 79 0.0 0.0 0.00 0.00 0.00 14 1003.0
20260506114656 78 0.0 0.0 0.00 0.00 0.00 14 1002.9
20260506113726 79 0.0 0.0 0.00 0.00 0.00 14 1003.0
20260506112716 78 0.0 0.0 0.00 0.00 0.00 14 1003.4
20260506111726 78 0.0 0.0 0.00 0.00 0.00 14 1003.4
20260506110616 78 0.0 0.0 0.00 0.00 0.00 14 1003.4
20260506104656 75 0.0 0.0 0.00 0.00 0.00 14 1003.6
20260506103726 74 0.0 0.0 0.00 0.00 0.00 14 1003.5
20260506102636 75 0.0 0.0 0.00 0.00 0.00 14 1003.5
20260506101605 76 0.0 0.0 0.00 0.00 0.00 14 1003.5
20260506100435 76 0.0 0.0 0.00 0.00 0.00 14 1003.9
20260506095625 75 0.0 0.0 0.00 0.00 0.00 14 1003.9
20260506094415 74 0.0 0.0 0.00 0.00 0.00 14 1003.9
20260506093445 73 0.0 0.0 0.00 0.00 0.00 14 1003.8
20260506092234 73 0.0 0.0 0.00 0.00 0.00 14 1003.8
20260506091304 72 0.0 0.0 0.00 0.00 0.00 14 1003.8
20260506090134 71 0.0 0.0 0.00 0.00 0.00 14 1003.9
20260506085224 70 0.0 0.0 0.00 0.00 0.00 14 1003.9
20260506084053 69 0.0 0.0 0.00 0.00 0.00 14 1003.9
20260506083043 67 0.0 0.0 0.00 0.00 0.00 14 1003.8
20260506081953 67 0.0 0.0 0.00 0.00 0.00 14 1003.8
20260506080843 67 0.0 0.0 0.00 0.00 0.00 14 1003.9
20260506072700 64 0.0 0.0 0.00 0.00 0.00 25 1003.8
20260506071631 63 0.0 0.0 0.00 0.00 0.00 26 1003.7
20260506070539 62 0.0 0.0 0.00 0.00 0.00 26 1003.5
20260506062355 59 0.0 0.0 0.00 0.00 0.00 32 1003.8
20260506061403 58 0.0 0.0 0.00 0.00 0.00 31 1003.7
20260506060313 58 0.0 0.0 0.00 0.00 0.00 31 1003.4
20260506050736 55 0.0 0.0 0.00 0.00 0.00 27 1003.1
20260506044654 54 0.0 0.0 0.00 0.00 0.00 14 1003.1
20260506043722 54 0.0 0.0 0.00 0.00 0.00 14 1003.1
20260506042530 54 0.0 0.0 0.00 0.00 0.00 14 1002.8
20260506041419 54 0.0 0.0 0.00 0.00 0.00 14 1002.8
20260506040407 54 0.0 0.0 0.00 0.00 0.00 14 1002.8
20260506035355 54 0.0 0.0 0.00 0.00 0.00 14 1002.8
20260506034244 55 0.0 0.0 0.00 0.00 0.00 14 1002.8
20260506033152 55 0.0 0.0 0.00 0.00 0.00 14 1002.5
20260506032040 55 0.0 0.0 0.00 0.00 0.00 14 1002.5
20260506031009 56 0.0 0.0 0.00 0.00 0.00 14 1002.6
20260506025937 56 0.0 0.0 0.00 0.00 0.00 14 1002.8
20260506024805 56 0.0 0.0 0.00 0.00 0.00 14 1002.8
20260506023733 56 0.0 0.0 0.00 0.00 0.00 14 1002.8
20260506022621 57 0.0 0.0 0.00 0.00 0.00 14 1002.8